Printer-friendly version

IAU Minor Planet Center

Minor Planet Center

MPEC 2006-S82 : 2006 SR134

The following Minor Planet Electronic Circular may be linked-to from your own Web pages, but must not otherwise be redistributed electronically.


Read MPEC 2006-S81 Read MPEC 2006-S83


M.P.E.C. 2006-S82                                Issued 2006 Sept. 28, 22:18 UT

     The Minor Planet Electronic Circulars contain information on unusual
         minor planets and routine data on comets.  They are published
   on behalf of Commission 20 of the International Astronomical Union by the
          Minor Planet Center, Smithsonian Astrophysical Observatory,
                          Cambridge, MA 02138, U.S.A.

                  Supported in part by the Brinson Foundation
                  Supported in part by the TABASGO Foundation
             Prepared using the Tamkin Foundation Computer Network

                              MPC@CFA.HARVARD.EDU
          URL http://cfa-www.harvard.edu/iau/mpc.html  ISSN 1523-6714

                                  2006 SR134

Observations:
     K06SD4R* C2006 09 27.36811 01 33 45.89 +03 39 49.0          20.7 V ES082691
     K06SD4R  C2006 09 27.38550 01 33 44.13 +03 39 54.3          20.7 V ES082691
     K06SD4R  C2006 09 27.40294 01 33 42.38 +03 39 59.7          20.6 V ES082691
     K06SD4R  C2006 09 28.35557 01 32 22.35 +03 44 53.5          21.0 V ES082291
     K06SD4R  C2006 09 28.35975 01 32 21.93 +03 44 54.7          20.9 V ES082291
     K06SD4R  C2006 09 28.36354 01 32 21.56 +03 44 56.0          21.0 V ES082291

Observer details:
291 LPL/Spacewatch II.  Observer T. H. Bressi.  1.8-m f/2.7 reflector + CCD.
691 Steward Observatory, Kitt Peak.  Observer T. H. Bressi.  0.9-m f/3
    reflector + CCD.

Orbital elements:
2006 SR134                                               Earth MOID = 0.0359 AU
Epoch 2006 Sept. 22.0 TT = JDT 2454000.5                MPC
M  25.00646              (2000.0)            P               Q
n   0.46671074     Peri.  267.62040     +0.62145620     +0.78321055
a   1.6460291      Node    40.82303     -0.70654109     +0.57093760
e   0.3712962      Incl.    1.69393     -0.33851422     +0.24619402
P   2.11           H   23.1           G   0.15           U   9
Residuals in seconds of arc
060927 691  0.0   0.1+    060927 691  0.0   0.1-    060928 291  0.1-  0.1-
060927 691  0.0   0.0     060928 291  0.0   0.0     060928 291  0.1+  0.1+

Ephemeris:
2006 SR134               a,e,i = 1.65, 0.37, 2                   q = 1.0349
Date    TT    R. A. (2000) Decl.     Delta      r     Elong.  Phase     V
2006 09 22    01 41.41   +03 07.5    0.178    1.165   153.3    22.8    20.8
2006 10 02    01 27.34   +04 02.0    0.215    1.211   166.1    11.5    20.9
2006 10 12    01 15.21   +04 37.7    0.262    1.260   176.8     2.5    21.0
2006 10 22    01 06.71   +05 08.2    0.321    1.311   168.8     8.4    21.8

Kyle E. Smalley              (C) Copyright 2006 MPC           M.P.E.C. 2006-S82

Read MPEC 2006-S81 Read MPEC 2006-S83


Our Web policy. Index to the CBAT/MPC/ICQ pages.


Valid HTML 4.01!